PDT,Max TemperatureF,Mean TemperatureF,Min TemperatureF,Max Dew PointF,MeanDew PointF,Min DewpointF,Max Humidity, Mean Humidity, Min Humidity, Max Sea Level PressureIn, Mean Sea Level PressureIn, Min Sea Level PressureIn, Max VisibilityMiles, Mean VisibilityMiles, Min VisibilityMiles, Max Wind SpeedMPH, Mean Wind SpeedMPH, Max Gust SpeedMPH,PrecipitationIn, CloudCover, Events, WindDirDegrees
2013-4-1,56,48,39,47,45,39,93,83,72,30.14,30.07,29.99,10,10,10,17,8,23,0.00,1,,173
2013-4-2,55,52,48,45,44,42,86,76,66,30.22,30.19,30.13,10,10,10,14,6,18,T,8,,166
2013-4-3,60,53,46,48,46,42,93,78,62,30.21,30.14,30.00,10,8,3,10,2,14,0.02,5,Rain,280
2013-4-4,57,52,46,52,48,44,96,87,77,29.98,29.73,29.59,10,7,3,32,6,44,0.26,7,Rain,75
2013-4-5,58,54,49,51,47,42,93,80,67,29.84,29.77,29.66,10,9,4,25,12,38,0.54,8,Rain,165
2013-4-6,55,49,43,45,42,39,96,78,59,29.90,29.81,29.65,10,10,5,26,9,40,0.30,6,Rain,152
2013-4-7,49,46,42,44,41,39,96,84,71,29.88,29.70,29.55,10,8,3,16,6,22,0.37,8,Rain,41
2013-4-8,52,48,44,45,43,41,92,82,71,30.27,30.11,29.90,10,10,10,13,4,16,T,5,Rain,163
2013-4-9,54,47,40,46,42,37,93,74,54,30.35,30.29,30.14,10,10,8,20,6,26,T,7,Rain,161
2013-4-10,55,52,48,48,44,38,93,74,54,30.23,30.03,29.87,10,9,3,28,11,38,0.33,8,Rain,167
2013-4-11,54,48,42,41,36,30,82,62,41,30.31,30.26,30.20,10,10,10,12,5,16,0.00,5,Rain,188
2013-4-12,45,42,38,41,38,34,96,83,70,30.19,29.91,29.65,10,9,2,22,8,31,0.36,6,Rain,157
2013-4-13,48,41,34,40,36,32,100,86,71,30.00,29.88,29.78,10,8,2,17,6,22,0.19,5,Rain-Snow,164
2013-4-14,52,46,39,40,38,33,100,76,52,30.03,29.99,29.95,10,10,10,12,3,15,0.01,6,,163
2013-4-15,56,48,39,43,39,32,100,77,54,30.20,30.07,29.96,10,10,5,18,5,24,0.14,6,Rain-Thunderstorm,360
2013-4-16,60,47,33,37,33,24,100,65,29,30.41,30.33,30.22,10,10,8,15,4,21,0.00,0,,345
2013-4-17,56,45,34,40,36,33,92,70,47,30.46,30.43,30.40,10,10,10,17,7,23,T,5,Rain,168
2013-4-18,50,47,44,46,43,41,92,89,86,30.46,30.39,30.19,10,8,2,15,9,21,0.47,8,Rain,163
2013-4-19,53,51,48,49,47,45,100,90,80,30.18,30.11,30.06,10,6,2,15,7,21,0.41,8,Rain,164
2013-4-20,56,52,47,45,43,39,86,73,59,30.26,30.23,30.15,10,10,5,17,7,23,0.06,8,Rain,168
2013-4-21,55,46,37,43,40,30,92,68,44,30.42,30.27,30.21,10,8,3,18,7,25,0.33,6,Rain,359
2013-4-22,59,47,34,37,30,15,92,56,19,30.57,30.51,30.44,10,10,10,14,6,18,0.00,0,,345
2013-4-23,60,48,35,41,37,32,92,69,46,30.45,30.35,30.30,10,10,10,12,3,16,0.00,1,,192
2013-4-24,64,50,35,44,39,33,100,66,31,30.36,30.25,30.08,10,10,10,10,2,14,0.00,0,,177
2013-4-25,65,53,40,45,43,38,93,67,40,30.14,30.10,30.06,10,10,10,15,6,22,0.00,0,,165
2013-4-26,59,53,47,49,43,34,86,63,40,30.26,30.21,30.16,10,10,10,18,10,26,0.00,2,,170
2013-4-27,54,51,48,47,45,43,83,77,71,30.21,30.18,30.14,10,10,4,17,9,28,0.24,7,Rain,171
2013-4-28,55,49,42,44,41,39,96,80,63,30.21,30.12,29.93,10,10,7,17,7,24,0.08,6,Rain,164
2013-4-29,54,49,44,45,36,26,93,66,38,30.15,30.04,29.89,10,10,8,16,5,26,0.08,5,Rain,212
2013-4-30,53,45,37,36,33,29,76,59,41,30.46,30.30,30.16,10,10,10,10,3,14,T,5,,215